Showing default

INMARSAT 5-F2, 40384

Orbit data source: Space-Track

INMARSAT 5-F2, 40384 is a payload satellite owned by INMARSAT-Ltd (UK) in GEO that was launched on Sun, 01 Feb 2015 UTC via a PROTON-M/BRIZ-M launch vehicle from the Tyuratam Missile And Space Complex (TTMTR). Payload-class satellites include a variety of spacecraft equipped with specific instruments for various scientific and technological missions. These include communications satellites like Starlink; space stations such as the ISS; scientific satellites like the Hubble; Earth observation satellites from companies like Planet Labs, Umbra, and HawkEye 360; GPS; miniature CubeSats for education and research; and military/defense satellites.

Loading next visibility...
Identifier
40384, 2015-005A
Orbit
GEO
Country
Flag of IMIM
Related business
Manufacturer
Boeing/ES
Mission
Operational Commercial Communications
Bus & Motor
BSS-702HP, R-4D
Mass
6,070 kg wet, 3,700 kg dry
Launch date (UTC)
2015-02-01 (12 years ago)
Launch vehicle
PROTON-M/BRIZ-M
Launch site
Tyuratam Missile And Space Complex (TTMTR)
Object type
Payload
Rocket body
Debris
Shape & HBR
Box + 2 Pan, 16.9 m
Radar Cross Section
53.751 m², Large (>1 m²)

Expand to show TLE details & history
Last TLE update: 7 hours ago

TLE from 7 hours ago
0 INMARSAT 5-F2
1 40384U 15005A   26255.06952736 -.00000301  00000-0  00000+0 0  9992
2 40384   0.0032 161.6753 0000805  13.3643 146.0526  1.00271622 41862
Epoch: 2026-09-12T01:40Z
TLE epoch observation values (Epoch: 2026-09-12T01:40:07.163Z)
Latitude
0.01041°
Longitude
-55.01538°
Altitude
35,788.962 km
Speed
3.075 km/s
True Right ascension
21h 24m 23s
True Declination
0° 00' 37"
Sunlit
Object was in daylight at epoch
Visualization orbit readout
Latitude
Unknown
Longitude
Unknown
Altitude
Unknown
Speed
Unknown
Apparent Right ascension
Unknown
Apparent Declination
Unknown
Sunlit
N/A
Visualization observer readout
Local Sidereal Time
00:50:42
Azimuth
Unknown
Elevation
Unknown
Doppler factor
Unknown
Orbital elements
Apogee altitude
35,791.105 km
Perigee altitude
35,784.317 km
Semi-major axis
42,165.848 km
Eccentricity
0.00008
Inclination
0.0032°
RAAN
161.6753°
Arg. of periapsis
13.3643°
True anomaly
146.05775°
Mean anomaly
146.0526°
Eccentric anomaly
146.05518°
Mean motion
0.25067 °/min
Orbital period
1,436.15 mins
BSTAR
0
Loading maneuver chart data...
Computing Atmospheric mass density...
Loading historical data...
Loading historical data...
Loading historical data...
Loading historical data...
Loading historical data...
Loading historical data...
Loading historical data...
Other satellites on launch #5 in the year 2015 (2015-02-01 UTC)

Documentation

Showing up to 5 results
|